DW3153 Weather Reports


time (UTC)temp
C
wind
direction
speed
KPH
gust
KPH
rain 1hr
cm
rain 24hr
cm
rain mn
cm
humidity
%
barometer
mb
20260503194242 17 142 1.6 9.7 0.00 0.00 0.00 67 1013.8
20260503193226 17 122 1.6 9.7 0.00 0.00 0.00 67 1013.8
20260503192209 17 49 1.6 9.7 0.00 0.00 0.00 68 1013.8
20260503191233 17 141 1.6 1.6 0.00 0.00 0.00 67 1013.8
20260503190235 17 129 1.6 3.2 0.00 0.00 0.00 65 1013.8
20260503185236 17 149 0.0 6.4 0.00 0.00 0.00 63 1013.7
20260503183118 17 143 0.0 4.8 0.00 0.00 0.00 65 1013.7
20260503182106 17 146 1.6 6.4 0.00 0.00 0.00 68 1013.7
20260503173545 16 107 1.6 6.4 0.00 0.00 0.00 71 1013.6
20260503172550 16 30 0.0 6.4 0.00 0.00 0.00 73 1013.6
20260503170511 15 158 0.0 3.2 0.00 0.00 0.00 75 1013.5
20260503130733 12 167 0.0 0.0 0.00 0.00 0.00 81 1011.3
20260503110341 11 143 0.0 0.0 0.00 0.00 0.00 86 1011.4
20260503100155 11 143 0.0 0.0 0.00 0.00 0.00 84 1011.3
20260503080855 12 149 0.0 0.0 0.00 0.00 0.00 83 1012.2
20260503072755 12 158 0.0 0.0 0.00 0.00 0.00 83 1012.1
20260503071737 12 158 0.0 0.0 0.00 0.00 0.00 83 1012.1
20260503070801 12 158 0.0 0.0 0.00 0.00 0.00 83 1012.1
20260503053604 12 162 0.0 0.0 0.00 0.00 0.00 82 1012.4
20260503052550 12 162 0.0 1.6 0.00 0.00 0.00 81 1012.5
20260503050433 12 168 0.0 4.8 0.00 0.00 0.00 80 1012.5
20260503045413 12 151 0.0 1.6 0.00 0.00 0.00 80 1012.6
20260503044436 12 155 0.0 0.0 0.00 0.00 0.00 80 1012.5
20260503041227 12 155 0.0 0.0 0.00 0.00 0.00 81 1012.4
20260503040243 12 155 0.0 0.0 0.00 0.00 0.00 81 1012.3
20260503034032 12 140 0.0 0.0 0.00 0.00 0.00 80 1012.1
20260503033050 12 143 0.0 0.0 0.00 0.00 0.00 80 1012.0
20260503032032 12 139 0.0 6.4 0.00 0.00 0.00 80 1011.9
20260503031003 12 156 0.0 1.6 0.00 0.00 0.00 80 1011.7
20260503030018 13 141 0.0 1.6 0.00 0.00 0.00 80 1011.7
20260503023845 13 151 0.0 1.6 0.00 0.00 0.00 80 1011.7
20260503022828 13 144 0.0 6.4 0.00 0.00 0.00 80 1011.6
20260503021832 13 163 0.0 6.4 0.00 0.00 0.00 79 1011.6
20260503020814 13 148 0.0 4.8 0.00 0.00 0.00 79 1011.7
20260503015812 13 133 0.0 4.8 0.00 0.00 0.00 78 1011.8
20260503014748 13 176 0.0 4.8 0.00 0.00 0.00 78 1011.7
20260503013753 13 148 1.6 6.4 0.00 0.00 0.00 77 1011.8
20260503012813 14 112 1.6 6.4 0.00 0.00 0.00 76 1011.9
20260503011804 14 141 1.6 4.8 0.00 0.00 0.00 76 1011.9
20260503010745 15 186 1.6 14.5 0.00 0.00 0.00 76 1011.9
20260503004646 15 124 1.6 16.1 0.00 0.00 0.00 75 1012.0
20260503003652 15 157 1.6 16.1 0.00 0.00 0.00 74 1012.1
20260503000448 15 113 1.6 16.1 0.00 0.00 0.00 73 1012.2
20260502235430 15 153 1.6 9.7 0.00 0.00 0.00 72 1012.1
20260502234424 15 146 1.6 6.4 0.00 0.00 0.00 72 1012.2
20260502233356 15 139 3.2 9.7 0.00 0.00 0.00 72 1012.2
20260502232333 15 120 1.6 17.7 0.00 0.00 0.00 72 1012.2
20260502230244 16 136 3.2 9.7 0.00 0.00 0.00 69 1012.4
20260502224116 16 72 3.2 12.9 0.00 0.00 0.00 68 1012.7
20260502223052 17 110 4.8 14.5 0.00 0.00 0.00 68 1012.8
20260502222036 17 149 4.8 16.1 0.00 0.00 0.00 69 1013.0
20260502221053 17 94 4.8 20.9 0.00 0.00 0.00 69 1013.1
20260502220022 17 96 6.4 20.9 0.00 0.00 0.00 70 1013.2
20260502214956 17 60 4.8 16.1 0.00 0.00 0.00 69 1013.1
20260502213947 17 161 4.8 20.9 0.00 0.00 0.00 68 1013.3
20260502212959 17 21 4.8 20.9 0.00 0.00 0.00 69 1013.4
20260502210809 16 276 4.8 19.3 0.00 0.00 0.00 71 1013.5
20260502205739 16 116 3.2 11.3 0.00 0.00 0.00 71 1013.9
20260502204732 16 37 1.6 17.7 0.00 0.00 0.00 72 1013.9
20260502203719 15 278 4.8 17.7 0.00 0.00 0.00 75 1013.9
20260502202650 15 142 3.2 12.9 0.00 0.00 0.00 77 1014.1